Flag for U.S.A. Weather past 2 weeks in Anchorage, Alaska, U.S.A.

Now
32 °F

Overcast.


Feels Like: 29 °F
Forecast: 22 / 34 °F
Wind: 3 mph from Northwest

Location: Lake Hood Seaplane

Current Time: Oct 25, 2014 at 7:32:06 AM

Latest Report: Oct 25, 2014 at 6:53 AM


Visibility: 10 mi

Pressure: 29.91 "Hg

Humidity: 82%

Dew point: 27 °F

Location of AnchorageLocation

Historic Weather in Anchorage — Graph

°F

Anchorage temperature yesterday

Maximum temperature yesterday: 36 °F (at 1:53 PM)
Minimum temperature yesterday: 26 °F (at 6:53 AM)
Average temperature yesterday: 31 °F

Past Weeks' High & Low Weather Summary

 TemperatureHumidityPressure
High49 °F (Oct 13, 3:53 PM)93% (Oct 20, 12:00 PM)29.93 "Hg (Oct 20, 12:00 PM)
Low24 °F (Oct 23, 7:53 AM)49% (Oct 14, 11:53 AM)28.92 "Hg (Oct 10, 7:53 AM)
Average37 °F75%29.39 "Hg
* Reported Oct 10 5:53 AM — Oct 25 5:53 AM, Anchorage, Weather by CustomWeather, © 2014

Note: Actual official high and low records may vary slightly from our data, if they occured in-between our weather recording intervals... More about our weather records

Advertising

Anchorage weather history for previous 24 hours

 ConditionsComfort  
Time TempWeatherWind HumidityBarometerVisibility
5:53 AM
Oct 25
32 °FMostly cloudy.No wind79%29.91 "Hg10 mi
4:53 AM32 °FOvercast.No wind82%29.91 "Hg10 mi
3:53 AM33 °FMostly cloudy.No wind85%29.92 "Hg10 mi
2:53 AM32 °FOvercast.No wind88%29.93 "Hg10 mi
1:53 AM31 °FOvercast.No wind89%29.93 "Hg10 mi
12:53 AM32 °FOvercast.No wind82%29.92 "Hg10 mi
11:53 PM
Oct 24
32 °FPartly cloudy.No wind82%29.93 "Hg10 mi
10:53 PM32 °FMostly cloudy.No wind82%29.92 "Hg10 mi
9:53 PM32 °FMostly cloudy.No wind79%29.91 "Hg10 mi
8:53 PM34 °FMostly cloudy.No wind73%29.90 "Hg10 mi
7:53 PM35 °FMostly cloudy.No wind64%29.90 "Hg10 mi
6:53 PM35 °FOvercast.No wind64%29.89 "Hg10 mi
5:53 PM35 °FMostly cloudy.6 mph64%29.88 "Hg10 mi
4:53 PM35 °FBroken clouds.5 mph70%29.87 "Hg10 mi
3:53 PM35 °FPartly sunny.3 mph67%29.86 "Hg10 mi
2:53 PM36 °FMore clouds than sun.6 mph64%29.85 "Hg10 mi
1:53 PM36 °FOvercast.8 mph64%29.85 "Hg10 mi
12:53 PM34 °FPartly sunny.5 mph76%29.85 "Hg10 mi
11:53 AM32 °FOvercast.5 mph75%29.83 "Hg10 mi
10:53 AM31 °FPartly sunny.No wind82%29.83 "Hg10 mi
9:53 AM29 °FOvercast.No wind75%29.81 "Hg10 mi
8:53 AM26 °FPassing clouds.3 mph81%29.80 "Hg10 mi
7:53 AM27 °FClear.No wind78%29.80 "Hg10 mi
Weather by CustomWeather, © 2014

See weather overviewHow to use our weather pages